sat.trackr.live / text

‹ back to catalog

STARLINK-5605

NORAD 55411 · 2023-014W

PAYLOAD ACTIVE UNKNOWN

§ Identity

Operator
Country
US
Launch date
2023-01-31
Launch site
AFWTR
Launch vehicle
Mass (kg)
RCS (m²)

Purposes: comms

External: N2YO · Heavens-Above · Gunter

§ Orbital elements

Epoch: 2026-05-24T22:46:42.768768Z

Period
96.11 min
Inclination
69.9994°
Eccentricity
0.0002936
Mean motion
14.98331597 rev/d
Perigee alt
570.0 km
Apogee alt
574.1 km
Semi-major
6,950.2 km
B*
1.4616e-5
RAAN
232.3659°
Arg perigee
271.4187°
Mean anomaly
88.6635°
Rev number
18,347

§ Raw data

STARLINK-56051 55411U 23014W   26144.94910612  .00000081  00000+0  14616-4 0  99952 55411  69.9994 232.3659 0002936 271.4187  88.6635 14.98331597183473

JSON: /api/v1/satellites/55411 · /tle

For live sub-satellite position, see the globe view (requires WebGL).

§ Visibility from observer

Set your observer location to see the next 7 days of passes ≥ 10°. The values pass through the URL so the page stays shareable.

No JS? Fill the form by hand. The geolocation button needs JavaScript.